TimeEST,TemperatureF,Dew PointF,Humidity,Sea Level PressureIn,VisibilityMPH,Wind Direction,Wind SpeedMPH,Gust SpeedMPH,PrecipitationIn,Events,Conditions,WindDirDegrees,DateUTC
12:54 AM,33.1,28.9,85,30.20,10.0,North,5.8,-,N/A,,Partly Cloudy,10,2012-11-04 04:54:00
1:54 AM,33.1,28.0,82,30.20,10.0,NNE,3.5,-,N/A,,Partly Cloudy,20,2012-11-04 05:54:00
2:54 AM,28.9,27.0,92,30.20,10.0,Calm,Calm,-,N/A,,Clear,0,2012-11-04 07:54:00
3:54 AM,30.0,27.0,88,30.20,10.0,Calm,Calm,-,N/A,,Overcast,0,2012-11-04 08:54:00
4:54 AM,28.0,27.0,96,30.21,10.0,Calm,Calm,-,N/A,,Clear,0,2012-11-04 09:54:00
5:54 AM,28.0,27.0,96,30.23,10.0,Calm,Calm,-,N/A,,Overcast,0,2012-11-04 10:54:00
6:54 AM,26.1,25.0,96,30.22,6.0,West,3.5,-,N/A,,Scattered Clouds,280,2012-11-04 11:54:00
7:54 AM,28.9,28.0,96,30.24,9.0,Calm,Calm,-,N/A,,Overcast,0,2012-11-04 12:54:00
8:54 AM,32.0,30.9,96,30.24,8.0,Calm,Calm,-,N/A,,Overcast,0,2012-11-04 13:54:00
9:54 AM,37.0,33.1,86,30.24,10.0,Calm,Calm,-,N/A,,Mostly Cloudy,0,2012-11-04 14:54:00
10:18 AM,37.4,32.0,81,30.23,10.0,Calm,Calm,-,N/A,,Mostly Cloudy,0,2012-11-04 15:18:00
10:54 AM,37.9,30.9,76,30.25,10.0,Calm,Calm,-,N/A,,Overcast,0,2012-11-04 15:54:00
11:23 AM,39.2,30.2,70,30.23,10.0,Calm,Calm,-,N/A,,Overcast,0,2012-11-04 16:23:00
11:54 AM,39.0,28.9,67,30.25,10.0,ESE,3.5,-,N/A,,Overcast,110,2012-11-04 16:54:00
12:54 PM,41.0,32.0,70,30.22,10.0,Calm,Calm,-,N/A,,Overcast,0,2012-11-04 17:54:00
1:54 PM,43.0,32.0,65,30.20,10.0,North,8.1,-,N/A,,Scattered Clouds,360,2012-11-04 18:54:00
2:54 PM,46.0,33.1,61,30.19,10.0,North,4.6,-,N/A,,Mostly Cloudy,360,2012-11-04 19:54:00
3:54 PM,45.0,32.0,60,30.18,10.0,Calm,Calm,-,N/A,,Clear,0,2012-11-04 20:54:00
4:54 PM,45.0,30.9,58,30.18,10.0,Calm,Calm,-,N/A,,Clear,0,2012-11-04 21:54:00
5:54 PM,39.9,30.9,70,30.18,10.0,Calm,Calm,-,N/A,,Clear,0,2012-11-04 22:54:00
6:54 PM,37.9,30.9,76,30.19,10.0,NE,4.6,-,N/A,,Scattered Clouds,40,2012-11-04 23:54:00
7:54 PM,34.0,28.9,82,30.20,10.0,NE,3.5,-,N/A,,Partly Cloudy,40,2012-11-05 00:54:00
8:54 PM,30.9,28.0,89,30.20,10.0,Calm,Calm,-,N/A,,Clear,0,2012-11-05 01:54:00
9:54 PM,32.0,28.9,88,30.19,7.0,Calm,Calm,-,N/A,,Clear,0,2012-11-05 02:54:00
10:54 PM,28.9,27.0,92,30.20,6.0,NNE,4.6,-,N/A,,Clear,30,2012-11-05 03:54:00